Time,TemperatureF,DewpointF,PressureIn,WindDirection,WindDirectionDegrees,WindSpeedMPH,WindSpeedGustMPH,Humidity,HourlyPrecipIn,Conditions,Clouds,dailyrainin,SoftwareType,DateUTC
2013-05-06 00:32:00,45.0,45.0,-100.00,NW,305,5.0,7.0,99,0.00,,,0.00,,2013-05-06 05:32:00,
2013-05-06 00:42:00,45.0,45.0,-100.00,WNW,300,6.0,7.0,99,0.00,,,0.00,,2013-05-06 05:42:00,
2013-05-06 02:11:00,42.0,41.0,-100.00,NW,310,6.0,9.0,99,0.00,,,0.00,,2013-05-06 07:11:00,
2013-05-06 02:31:00,42.0,41.0,-100.00,NW,315,6.0,7.0,99,0.00,,,0.00,,2013-05-06 07:31:00,
2013-05-06 02:52:00,40.0,39.0,-100.00,NW,325,6.0,7.0,99,0.00,,,0.00,,2013-05-06 07:52:00,
2013-05-06 03:02:00,40.0,39.0,-100.00,NW,315,6.0,6.0,99,0.00,,,0.00,,2013-05-06 08:02:00,
2013-05-06 03:12:00,40.0,39.0,-100.00,NW,315,7.0,8.0,99,0.00,,,0.00,,2013-05-06 08:12:00,
2013-05-06 03:52:00,40.0,39.0,-100.00,WNW,300,6.0,7.0,99,0.00,,,0.00,,2013-05-06 08:52:00,
2013-05-06 04:01:00,39.0,39.0,-100.00,NW,305,7.0,8.0,99,0.00,,,0.00,,2013-05-06 09:01:00,
2013-05-06 04:11:00,40.0,39.0,-100.00,NW,310,6.0,8.0,99,0.00,,,0.00,,2013-05-06 09:11:00,
2013-05-06 04:22:00,40.0,39.0,-100.00,NW,315,6.0,7.0,99,0.00,,,0.00,,2013-05-06 09:22:00,
2013-05-06 04:53:00,38.0,37.0,-100.00,NW,315,4.0,5.0,99,0.00,,,0.00,,2013-05-06 09:53:00,
2013-05-06 05:02:00,38.0,37.0,-100.00,NW,310,4.0,4.0,99,0.00,,,0.00,,2013-05-06 10:02:00,
2013-05-06 05:22:00,38.0,37.0,-100.00,NW,320,4.0,6.0,99,0.00,,,0.00,,2013-05-06 10:22:00,
2013-05-06 05:32:00,38.0,37.0,-100.00,NNW,330,4.0,5.0,99,0.00,,,0.00,,2013-05-06 10:32:00,
2013-05-06 05:41:00,38.0,37.0,-100.00,NNW,345,3.0,6.0,99,0.00,,,0.00,,2013-05-06 10:41:00,
2013-05-06 06:22:00,37.0,37.0,-100.00,NW,310,4.0,4.0,99,0.00,,,0.00,,2013-05-06 11:22:00,
2013-05-06 06:31:00,38.0,37.0,-100.00,NNW,330,4.0,6.0,99,0.00,,,0.00,,2013-05-06 11:31:00,
2013-05-06 06:42:00,38.0,37.0,-100.00,NW,325,4.0,6.0,99,0.00,,,0.00,,2013-05-06 11:42:00,
2013-05-06 07:01:00,39.0,39.0,-100.00,NNW,335,4.0,5.0,99,0.00,,,0.00,,2013-05-06 12:01:00,
2013-05-06 07:12:00,40.0,39.0,-100.00,North,350,4.0,6.0,99,0.00,,,0.00,,2013-05-06 12:12:00,
2013-05-06 07:21:00,41.0,41.0,-100.00,NNW,330,6.0,7.0,99,0.00,,,0.00,,2013-05-06 12:21:00,
2013-05-06 08:01:00,43.0,43.0,-100.00,North,0,4.0,6.0,99,0.00,,,0.00,,2013-05-06 13:01:00,
2013-05-06 08:21:00,45.0,45.0,-100.00,West,260,1.0,4.0,99,0.00,,,0.00,,2013-05-06 13:21:00,
2013-05-06 08:42:00,47.0,46.0,-100.00,NE,45,1.0,3.0,99,0.00,,,0.00,,2013-05-06 13:42:00,
2013-05-06 09:01:00,49.0,48.0,-100.00,NE,45,2.0,4.0,99,0.00,,,0.00,,2013-05-06 14:01:00,
2013-05-06 09:21:00,50.0,50.0,-100.00,NW,310,1.0,4.0,99,0.00,,,0.00,,2013-05-06 14:21:00,
2013-05-06 09:32:00,51.0,50.0,-100.00,NW,315,2.0,4.0,98,0.00,,,0.00,,2013-05-06 14:32:00,
2013-05-06 09:42:00,52.0,50.0,-100.00,NW,315,3.0,4.0,93,0.00,,,0.00,,2013-05-06 14:42:00,
2013-05-06 09:51:00,53.0,50.0,-100.00,NNW,335,2.0,5.0,89,0.00,,,0.00,,2013-05-06 14:51:00,
2013-05-06 10:01:00,54.0,50.0,-100.00,NW,315,2.0,4.0,85,0.00,,,0.00,,2013-05-06 15:01:00,
2013-05-06 10:11:00,56.0,50.0,-100.00,NW,310,2.0,4.0,81,0.00,,,0.00,,2013-05-06 15:11:00,
2013-05-06 10:21:00,57.0,50.0,-100.00,North,5,1.0,4.0,76,0.00,,,0.00,,2013-05-06 15:21:00,
2013-05-06 10:33:00,58.0,50.0,-100.00,WNW,300,2.0,3.0,73,0.00,,,0.00,,2013-05-06 15:33:00,
2013-05-06 10:42:00,59.0,50.0,-100.00,NNE,20,3.0,5.0,70,0.00,,,0.00,,2013-05-06 15:42:00,
2013-05-06 10:53:00,60.0,50.0,-100.00,NW,320,1.0,6.0,70,0.00,,,0.00,,2013-05-06 15:53:00,
2013-05-06 11:03:00,61.0,50.0,-100.00,West,280,2.0,4.0,67,0.00,,,0.00,,2013-05-06 16:03:00,
2013-05-06 11:13:00,61.0,50.0,-100.00,NNW,335,3.0,4.0,66,0.00,,,0.00,,2013-05-06 16:13:00,
2013-05-06 11:23:00,63.0,52.0,-100.00,SSW,205,4.0,6.0,65,0.00,,,0.00,,2013-05-06 16:23:00,
2013-05-06 11:32:00,64.0,50.0,-100.00,NE,50,1.0,6.0,62,0.00,,,0.00,,2013-05-06 16:32:00,
2013-05-06 11:41:00,65.0,52.0,-100.00,SW,225,4.0,7.0,60,0.00,,,0.00,,2013-05-06 16:41:00,
2013-05-06 11:52:00,67.0,50.0,-100.00,WSW,250,2.0,8.0,56,0.00,,,0.00,,2013-05-06 16:52:00,
2013-05-06 12:03:00,66.0,50.0,-100.00,WSW,250,6.0,8.0,56,0.00,,,0.00,,2013-05-06 17:03:00,
2013-05-06 12:12:00,66.0,50.0,-100.00,West,270,3.0,9.0,56,0.00,,,0.00,,2013-05-06 17:12:00,
2013-05-06 12:23:00,67.0,50.0,-100.00,South,185,4.0,6.0,54,0.00,,,0.00,,2013-05-06 17:23:00,
2013-05-06 12:31:00,69.0,50.0,-100.00,NNW,340,2.0,11.0,51,0.00,,,0.00,,2013-05-06 17:31:00,
2013-05-06 12:42:00,68.0,50.0,-100.00,WSW,245,7.0,10.0,52,0.00,,,0.00,,2013-05-06 17:42:00,
2013-05-06 12:52:00,69.0,50.0,-100.00,SSW,200,3.0,9.0,52,0.00,,,0.00,,2013-05-06 17:52:00,
2013-05-06 13:01:00,68.0,50.0,-100.00,SW,220,4.0,11.0,52,0.00,,,0.00,,2013-05-06 18:01:00,
2013-05-06 13:12:00,69.0,50.0,-100.00,North,0,3.0,11.0,51,0.00,,,0.00,,2013-05-06 18:12:00,
2013-05-06 13:21:00,68.0,50.0,-100.00,South,190,6.0,17.0,52,0.00,,,0.00,,2013-05-06 18:21:00,
2013-05-06 13:31:00,67.0,48.0,-100.00,East,100,4.0,12.0,52,0.00,,,0.00,,2013-05-06 18:31:00,
2013-05-06 13:43:00,70.0,50.0,-100.00,SW,215,7.0,11.0,50,0.00,,,0.00,,2013-05-06 18:43:00,
2013-05-06 13:52:00,71.0,50.0,-100.00,SW,225,6.0,10.0,47,0.00,,,0.00,,2013-05-06 18:52:00,
2013-05-06 14:01:00,71.0,50.0,-100.00,WSW,250,5.0,9.0,47,0.00,,,0.00,,2013-05-06 19:01:00,
2013-05-06 14:11:00,71.0,50.0,-100.00,WSW,250,6.0,9.0,47,0.00,,,0.00,,2013-05-06 19:11:00,
2013-05-06 14:22:00,69.0,50.0,-100.00,South,180,6.0,11.0,48,0.00,,,0.00,,2013-05-06 19:22:00,
2013-05-06 14:32:00,70.0,50.0,-100.00,SSW,205,7.0,12.0,47,0.00,,,0.00,,2013-05-06 19:32:00,
2013-05-06 14:41:00,69.0,48.0,-100.00,West,275,2.0,6.0,48,0.00,,,0.00,,2013-05-06 19:41:00,
2013-05-06 14:52:00,71.0,50.0,-100.00,SSW,210,7.0,11.0,48,0.00,,,0.00,,2013-05-06 19:52:00,
2013-05-06 15:02:00,71.0,50.0,-100.00,SSW,210,5.0,12.0,47,0.00,,,0.00,,2013-05-06 20:02:00,
2013-05-06 15:11:00,72.0,50.0,-100.00,SW,220,6.0,10.0,47,0.00,,,0.00,,2013-05-06 20:11:00,
2013-05-06 15:21:00,69.0,48.0,-100.00,WSW,250,2.0,9.0,48,0.00,,,0.00,,2013-05-06 20:21:00,
2013-05-06 15:32:00,69.0,48.0,-100.00,North,10,0.0,7.0,48,0.00,,,0.00,,2013-05-06 20:32:00,
2013-05-06 15:42:00,69.0,48.0,-100.00,SW,220,2.0,6.0,49,0.00,,,0.00,,2013-05-06 20:42:00,
2013-05-06 15:52:00,69.0,48.0,-100.00,WSW,255,2.0,11.0,49,0.00,,,0.00,,2013-05-06 20:52:00,
2013-05-06 16:01:00,71.0,50.0,-100.00,SSW,210,11.0,13.0,48,0.00,,,0.00,,2013-05-06 21:01:00,
2013-05-06 16:11:00,72.0,52.0,-100.00,SW,215,7.0,13.0,47,0.00,,,0.00,,2013-05-06 21:11:00,
2013-05-06 16:21:00,72.0,52.0,-100.00,WSW,240,6.0,11.0,46,0.00,,,0.00,,2013-05-06 21:21:00,
2013-05-06 16:32:00,70.0,50.0,-100.00,SSW,210,4.0,9.0,47,0.00,,,0.00,,2013-05-06 21:32:00,
2013-05-06 16:42:00,71.0,50.0,-100.00,WSW,245,5.0,9.0,47,0.00,,,0.00,,2013-05-06 21:42:00,
2013-05-06 16:53:00,69.0,48.0,-100.00,WNW,285,4.0,6.0,48,0.00,,,0.00,,2013-05-06 21:53:00,
2013-05-06 17:03:00,68.0,48.0,-100.00,West,280,6.0,7.0,49,0.00,,,0.00,,2013-05-06 22:03:00,
2013-05-06 17:12:00,68.0,48.0,-100.00,NW,315,3.0,7.0,50,0.00,,,0.00,,2013-05-06 22:12:00,
2013-05-06 17:22:00,68.0,48.0,-100.00,NNW,330,4.0,6.0,50,0.00,,,0.00,,2013-05-06 22:22:00,
2013-05-06 17:33:00,69.0,50.0,-100.00,WNW,300,2.0,10.0,50,0.00,,,0.00,,2013-05-06 22:33:00,
2013-05-06 17:45:00,70.0,50.0,-100.00,West,280,6.0,10.0,48,0.00,,,0.00,,2013-05-06 22:45:00,
2013-05-06 17:52:00,73.0,50.0,-100.00,WSW,240,7.0,12.0,45,0.00,,,0.00,,2013-05-06 22:52:00,
2013-05-06 18:02:00,70.0,48.0,-100.00,WSW,245,5.0,9.0,46,0.00,,,0.00,,2013-05-06 23:02:00,
2013-05-06 18:12:00,71.0,50.0,-100.00,SW,235,6.0,11.0,46,0.00,,,0.00,,2013-05-06 23:12:00,
2013-05-06 18:22:00,69.0,48.0,-100.00,WNW,290,5.0,9.0,47,0.00,,,0.00,,2013-05-06 23:22:00,
2013-05-06 18:31:00,70.0,50.0,-100.00,West,260,7.0,11.0,47,0.00,,,0.00,,2013-05-06 23:31:00,
2013-05-06 18:41:00,71.0,50.0,-100.00,SW,215,7.0,11.0,46,0.00,,,0.00,,2013-05-06 23:41:00,
2013-05-06 18:52:00,70.0,50.0,-100.00,SW,225,4.0,8.0,47,0.00,,,0.00,,2013-05-06 23:52:00,
2013-05-06 19:01:00,72.0,50.0,-100.00,WSW,245,2.0,6.0,45,0.00,,,0.00,,2013-05-07 00:01:00,
2013-05-06 19:11:00,72.0,50.0,-100.00,SW,225,5.0,7.0,45,0.00,,,0.00,,2013-05-07 00:11:00,
2013-05-06 19:21:00,71.0,48.0,-100.00,SW,225,4.0,11.0,45,0.00,,,0.00,,2013-05-07 00:21:00,
2013-05-06 19:31:00,70.0,48.0,-100.00,West,265,2.0,4.0,45,0.00,,,0.00,,2013-05-07 00:31:00,
2013-05-06 19:41:00,70.0,48.0,-100.00,SW,235,5.0,7.0,46,0.00,,,0.00,,2013-05-07 00:41:00,
2013-05-06 19:51:00,69.0,48.0,-100.00,SW,230,7.0,9.0,47,0.00,,,0.00,,2013-05-07 00:51:00,
2013-05-06 20:01:00,69.0,48.0,-100.00,SW,235,7.0,9.0,47,0.00,,,0.00,,2013-05-07 01:01:00,
2013-05-06 20:11:00,68.0,48.0,-100.00,WSW,250,6.0,8.0,48,0.00,,,0.00,,2013-05-07 01:11:00,
2013-05-06 20:21:00,67.0,48.0,-100.00,WSW,250,6.0,7.0,50,0.00,,,0.00,,2013-05-07 01:21:00,
2013-05-06 20:32:00,65.0,48.0,-100.00,West,260,4.0,6.0,52,0.00,,,0.00,,2013-05-07 01:32:00,
2013-05-06 20:42:00,64.0,46.0,-100.00,WSW,250,4.0,6.0,54,0.00,,,0.00,,2013-05-07 01:42:00,
2013-05-06 20:52:00,63.0,46.0,-100.00,West,270,4.0,4.0,55,0.00,,,0.00,,2013-05-07 01:52:00,
2013-05-06 21:02:00,62.0,46.0,-100.00,WSW,255,4.0,5.0,57,0.00,,,0.00,,2013-05-07 02:02:00,
2013-05-06 21:11:00,61.0,46.0,-100.00,WSW,245,4.0,4.0,59,0.00,,,0.00,,2013-05-07 02:11:00,
2013-05-06 21:21:00,61.0,48.0,-100.00,WSW,255,3.0,5.0,61,0.00,,,0.00,,2013-05-07 02:21:00,
2013-05-06 21:31:00,60.0,48.0,-100.00,WSW,250,4.0,4.0,62,0.00,,,0.00,,2013-05-07 02:31:00,
2013-05-06 21:41:00,60.0,48.0,-100.00,West,260,4.0,6.0,63,0.00,,,0.00,,2013-05-07 02:41:00,
2013-05-06 21:51:00,60.0,48.0,-100.00,West,265,6.0,6.0,64,0.00,,,0.00,,2013-05-07 02:51:00,
2013-05-06 22:01:00,59.0,48.0,-100.00,West,270,6.0,6.0,65,0.00,,,0.00,,2013-05-07 03:01:00,
2013-05-06 22:11:00,58.0,48.0,-100.00,WNW,300,4.0,6.0,68,0.00,,,0.00,,2013-05-07 03:11:00,
2013-05-06 22:21:00,59.0,48.0,-100.00,WNW,285,4.0,4.0,68,0.00,,,0.00,,2013-05-07 03:21:00,
2013-05-06 22:32:00,59.0,48.0,-100.00,WNW,285,6.0,6.0,68,0.00,,,0.00,,2013-05-07 03:32:00,
2013-05-06 22:42:00,59.0,50.0,-100.00,West,280,4.0,6.0,68,0.00,,,0.00,,2013-05-07 03:42:00,
2013-05-06 22:53:00,57.0,48.0,-100.00,NW,305,3.0,6.0,72,0.00,,,0.00,,2013-05-07 03:53:00,
2013-05-06 23:02:00,57.0,48.0,-100.00,WNW,295,4.0,4.0,74,0.00,,,0.00,,2013-05-07 04:02:00,
2013-05-06 23:12:00,57.0,50.0,-100.00,WNW,300,4.0,4.0,74,0.00,,,0.00,,2013-05-07 04:12:00,
2013-05-06 23:23:00,57.0,50.0,-100.00,WNW,290,5.0,6.0,76,0.00,,,0.00,,2013-05-07 04:23:00,
2013-05-06 23:33:00,58.0,50.0,-100.00,WNW,290,4.0,7.0,75,0.00,,,0.00,,2013-05-07 04:33:00,
2013-05-06 23:42:00,55.0,48.0,-100.00,West,275,2.0,4.0,77,0.00,,,0.00,,2013-05-07 04:42:00,
2013-05-06 23:52:00,54.0,48.0,-100.00,West,265,3.0,4.0,79,0.00,,,0.00,,2013-05-07 04:52:00,